Tracking 29781 objects as of 16-Oct-2024
HD Live streaming from Space Station
objects crossing your sky now

FLOCK 4Q 16

Track FLOCK 4Q 16 now!
10-day predictions
FLOCK 4Q 16 is classified as:


NORAD ID: 58271
Int'l Code: 2023-174R
Perigee: 494.7 km
Apogee: 509.1 km
Inclination: 97.4 °
Period: 94.5 minutes
Semi major axis: 6872 km
RCS: Unknown
Launch date: November 11, 2023
Source: United States (US)
Launch site: AIR FORCE WESTERN TEST RANGE (AFWTR)
Your satellite tracking list
Your tracking list is empty




NASA's NSSDC Master Catalog

Two Line Element Set (TLE):
1 58271U 23174R   24289.14907510  .00021216  00000-0  88406-3 0  9993
2 58271  97.4458   2.4476 0010455 177.7329 182.3957 15.23686758 51941
Source of the keplerian elements: AFSPC